Location: Entrepierres
(44.1972°N, 5.9911°E)
Time: 01:01:23
(UTC+00:00)

Daily predictions for brighter satellites

Satellite Brightness Start Highest point End
(mag) Time Altitude Azimuth Time Altitude Azimuth Time Altitude Azimuth
Cosmos 2263 Rocket 4.5 01:00:36 10° N 01:03:49 20° NNE 01:03:49 20° NNE
Lacrosse 5 4.5 01:22:28 16° NE 01:22:28 16° NE 01:23:33 10° NE
Resurs 1-4 Rocket 4.3 01:25:24 10° NNE 01:26:56 20° N 01:26:56 20° N
SL-16 R/B 4.5 01:35:43 19° NNW 01:35:43 19° NNW 01:37:16 10° NNW
CZ-2D R/B 4.3 01:31:59 10° N 01:33:36 20° N 01:33:36 20° N
USA 267 4.2 01:44:35 10° ENE 01:49:37 38° ESE 01:49:37 38° ESE
ARIANE 5 R/B 4.4 01:47:04 10° NE 01:50:05 26° ENE 01:50:05 26° ENE
Gbstr 26 Del rocket 4.5 02:03:40 77° NNE 02:03:51 77° NNE 02:11:29 10° ESE
ATLAS 2AS CENTAUR R/B 4.4 01:57:59 10° NNW 02:04:42 32° NNE 02:10:57 10° E
SL-4 R/B 4.1 02:21:54 28° ENE 02:21:54 28° ENE 02:24:19 10° ENE
ADEOS II 3.3 02:15:20 10° N 02:18:19 35° N 02:18:19 35° N
IDEFIX/ARIANE 42P 3.4 02:17:33 10° NNE 02:22:24 46° E 02:22:24 46° E
USA 234 4.2 02:19:43 10° E 02:25:50 44° NNE 02:30:48 16° NW
Cosmos 1238 Rocket 4.1 02:27:56 10° N 02:33:17 61° NNW 02:33:17 61° NNW
Cosmos 1605 Rocket 4.2 02:28:14 10° N 02:34:39 69° E 02:37:19 37° SSE
Cosmos 2360 Rocket 4.1 02:33:12 16° SE 02:36:13 24° ESE 02:40:40 10° NE
H-2A R/B 4.1 02:33:29 10° SE 02:37:16 28° ENE 02:41:06 10° N
Cosmos 1697 Rocket 4.2 02:40:57 24° NNW 02:40:57 24° NNW 02:44:12 10° N
Cosmos 1980 Rocket 3.1 02:47:19 36° NNW 02:47:19 36° NNW 02:51:31 10° NNE
Cosmos 2263 Rocket 3.9 02:43:41 10° NNW 02:45:20 20° NNW 02:45:20 20° NNW
ASTEX 1 3.9 02:47:32 10° N 02:51:25 53° N 02:51:25 53° N
Cosmos 2322 Rocket 2.5 02:54:20 52° SSE 02:55:30 64° ESE 03:01:09 10° NNE
Cosmos 1898 Rocket 3.5 02:52:31 10° NNW 02:57:48 78° ENE 03:03:06 10° SSE
Cosmos 1666 3.9 02:56:23 10° N 02:59:07 38° NNE 02:59:07 38° NNE
Spot 4 Rocket 3.9 02:55:31 10° NNE 03:00:42 89° ESE 03:01:01 80° S
Meteor 1-11 Rocket 4.0 02:56:28 10° N 03:02:12 66° ENE 03:07:46 10° SSE
Lacrosse 5 3.5 03:01:39 22° NNW 03:02:20 23° NNW 03:06:22 10° NE
Cosmos 921 Rocket 4.4 03:05:07 27° NNW 03:05:07 27° NNW 03:07:21 10° N
Cosmos 1812 4.2 03:08:14 29° N 03:08:14 29° N 03:10:15 10° N
SL-16 R/B 2.1 03:06:39 65° SW 03:07:32 86° WNW 03:13:15 10° NNE
Meteor 1-27 Rocket 4.2 03:05:04 20° S 03:09:09 63° E 03:14:58 10° NNE
Resurs 1-4 Rocket 4.4 03:07:28 10° NNW 03:08:01 11° NW 03:08:01 11° NW
IRIDIUM 104 4.2 03:07:33 10° N 03:12:49 89° E 03:15:22 31° S
Cosmos 1727 Rocket 4.0 03:09:26 26° S 03:13:14 84° E 03:19:35 10° N
Cosmos 1339 Rocket 4.5 03:12:48 53° WSW 03:13:40 58° WNW 03:19:46 10° N
CZ-2D R/B 4.4 03:14:46 10° NW 03:14:55 10° NW 03:14:55 10° NW
Cosmos 1937 Rocket 3.4 03:12:09 10° NNW 03:17:19 83° ENE 03:22:27 10° SSE
CZ-4C R/B 4.0 03:20:03 40° N 03:20:03 40° N 03:22:24 10° N
FALCON 9 DEB 4.2 03:20:10 40° NNE 03:20:10 40° NNE 03:22:43 10° NE
Cosmos 841 Rocket 3.9 03:18:30 27° S 03:21:16 63° ESE 03:26:29 10° NNE
IRIDIUM 114 4.2 03:16:43 10° N 03:21:57 76° W 03:24:29 31° S
Cosmos 1536 3.0 03:21:05 10° N 03:25:10 72° E 03:29:13 10° SSE
Cosmos 1763 Rocket 3.5 03:25:15 52° WSW 03:26:16 63° WNW 03:31:32 10° NNE
CZ-2D R/B 4.3 03:24:07 10° N 03:27:24 38° NW 03:27:24 38° NW
USA 32 3.9 03:25:07 10° N 03:30:24 89° W 03:35:39 10° S
ARIANE 5 R/B 3.2 03:26:05 10° N 03:30:25 34° WNW 03:30:25 34° WNW
IRIDIUM 103 4.2 03:25:55 10° N 03:31:05 62° W 03:33:37 30° SSW
NOSS 3-4 (A) 3.8 03:25:36 10° NW 03:32:41 90° NNE 03:40:32 10° SE
NOSS 3-4 (C) 3.8 03:25:43 10° NW 03:32:47 89° NE 03:40:38 10° SE
Cosmos 1707 Rocket 3.4 03:32:27 53° SW 03:33:21 73° W 03:37:44 10° N
USA 267 3.3 03:27:25 10° NE 03:33:54 67° NNW 03:36:58 33° WSW
ADEOS Rocket 3.4 03:30:33 10° SSE 03:37:06 67° ENE 03:43:02 10° N
CZ-4B R/B 3.3 03:37:09 10° SE 03:40:02 31° ENE 03:42:59 10° N
ERS-2 2.4 03:37:34 10° SSE 03:41:13 69° ENE 03:44:52 10° N
Cosmos 540 Rocket 3.4 03:38:54 26° SSW 03:41:53 87° WNW 03:47:06 10° NNE
MSX 4.0 03:40:05 10° N 03:45:40 52° WNW 03:48:33 27° SW
Cosmos 44 Rocket 3.2 03:44:48 37° SW 03:46:39 74° NW 03:51:32 10° NNE
Cosmos 1733 Rocket 2.9 03:44:02 10° N 03:48:24 85° W 03:52:43 10° S
Cosmos 1743 3.4 03:47:17 10° N 03:51:03 55° E 03:54:47 10° SSE
PAYLOAD A 3.7 03:48:36 10° N 03:53:17 72° WNW 03:57:13 15° SSW
Landsat 5 3.9 03:50:27 10° S 03:54:46 45° W 03:59:03 10° NNW
Cosmos 2333 Rocket 3.4 03:50:13 10° S 03:55:36 43° ESE 04:01:01 10° NE
ATLAS 2AS CENTAUR R/B 2.7 03:49:00 10° NW 03:56:28 79° WSW 04:03:17 10° SSE
Cosmos 2173 Rocket 3.9 03:50:20 10° N 03:56:41 77° W 04:03:02 10° S
ADEOS 4.2 03:51:51 10° NNE 03:57:00 58° E 04:02:09 10° S
BREEZE M DEB (TANK) 4.0 03:46:16 10° WNW 03:58:25 44° SW 04:02:27 10° SSE
CZ-2C R/B 3.7 03:55:33 10° N 03:58:52 28° WNW 03:58:54 28° WNW
ADEOS II 4.1 03:57:53 10° NW 03:59:15 11° NW 03:59:15 11° NW
SL-4 R/B 2.9 03:57:30 28° WNW 03:59:35 47° NNW 04:04:13 10° NE
Cosmos 2322 4.2 03:54:50 10° S 04:00:23 60° ESE 04:05:57 10° NNE
IDEFIX/ARIANE 42P 3.7 03:57:42 10° N 04:01:56 25° WNW 04:03:12 23° W
Cosmos 1570 Rocket 4.1 03:58:30 20° SW 04:02:11 61° WNW 04:07:31 10° NNE
PSLV R/B 3.5 03:58:26 10° N 04:02:35 58° WNW 04:05:43 16° SSW
BREEZE-M DEB (TANK) 2.7 03:59:36 23° WSW 04:03:51 85° SSE 04:06:49 10° ENE
USA 276 2.3 04:03:18 27° NW 04:04:52 70° NNE 04:08:04 10° ESE
Meteor 2-20 4.4 03:59:51 10° S 04:05:59 86° W 04:12:08 10° N
Cosmos 1862 Rocket 3.5 04:03:54 10° SSW 04:08:13 63° W 04:12:33 10° N
USA 234 3.2 04:02:04 10° SE 04:08:36 75° SW 04:15:10 10° NW
BREEZE-M DEB (TANK) 4.0 04:08:00 22° WNW 04:09:59 49° N 04:18:22 10° ENE
H-2A R/B 2.8 04:09:14 10° SSW 04:13:08 30° W 04:17:07 10° NW
CZ-4C R/B 3.6 04:07:04 10° NNW 04:14:09 60° NE 04:22:19 10° SE
SAR-Lupe-4 3.7 04:10:37 10° SSE 04:14:11 75° ENE 04:17:47 10° N
Cosmos 1689 Rocket 3.9 04:13:28 10° SE 04:16:12 34° ENE 04:18:57 10° N
ALOS 2.6 04:11:49 10° NNE 04:16:29 68° E 04:21:07 10° S
PKM 3.9 04:14:43 13° WNW 04:17:51 59° SW 04:21:56 10° SE
Cosmos 2333 4.3 04:12:46 10° SSW 04:18:34 84° ESE 04:24:22 10° NNE
FENGYUN 3A 3.9 04:13:27 10° NNE 04:18:52 73° ESE 04:24:15 10° S
Cosmos 2360 Rocket 2.4 04:15:02 14° SW 04:19:49 53° WNW 04:25:23 10° NNE
CZ-2C R/B 2.9 04:19:17 10° N 04:24:10 44° WNW 04:29:04 10° SW
Cosmos 1975 3.4 04:20:34 10° N 04:24:33 60° E 04:28:29 10° SSE
Meteor 1-19 Rocket 4.4 04:20:58 10° S 04:26:25 76° E 04:32:05 10° NNE
Meteor 1-18 Rocket 4.3 04:21:37 10° S 04:27:10 83° E 04:32:47 10° NNE
Cosmos 372 Rocket 4.1 04:23:25 10° NNW 04:28:21 48° WSW 04:33:13 10° S
Cosmos 2016 Rocket 3.9 04:22:25 10° NNW 04:28:26 65° W 04:34:27 10° S
SAR-Lupe-1 4.0 04:29:43 10° S 04:33:15 67° WSW 04:36:50 10° NNW
Cosmos 1484 Rocket 2.8 04:29:44 10° N 04:33:44 73° WNW 04:37:43 10° SSW
Cosmos 2061 Rocket 4.1 04:28:58 10° NNW 04:35:17 59° W 04:41:33 10° S
ATLAS CENTAUR Rocket 4.3 04:28:24 12° WSW 04:35:52 22° SSW 04:39:52 10° SSE
Cosmos 1515 3.6 04:32:54 10° SSW 04:36:40 70° W 04:40:28 10° N
Cosmos 1844 Rocket 2.9 04:31:59 10° NW 04:37:22 46° WSW 04:42:44 10° S
Cosmos 2233 Rocket 4.1 04:32:01 10° N 04:38:12 82° E 04:44:21 10° S
Cosmos 2322 Rocket 3.5 04:36:12 13° W 04:40:01 23° NW 04:44:33 10° N
Cosmos 2278 Rocket 3.6 04:36:57 10° NNW 04:42:20 42° ENE 04:47:42 10° SE
Okean 1 3.7 04:40:52 10° SSW 04:44:43 43° WNW 04:48:36 10° N
Cosmos 1844 3.9 04:40:50 10° NW 04:46:09 48° WSW 04:51:28 10° S
Meteor 1-31 Rocket 2.7 04:42:49 10° N 04:46:37 63° WNW 04:50:26 10° SSW
Lacrosse 5 3.9 04:43:09 10° NW 04:46:51 20° N 04:50:32 10° NE
COSMO-SKYMED 1 2.7 04:42:35 10° SSE 04:46:55 82° ENE 04:51:17 10° N
Cosmos 1725 Rocket 4.1 04:45:07 10° NNW 04:51:05 52° W 04:57:02 10° SSW
Cosmos 1437 Rocket 3.6 04:48:16 10° SW 04:51:37 29° WNW 04:55:00 10° N
Meteor 2-9 Rocket 4.1 04:46:27 10° NNW 04:51:54 70° W 04:57:11 10° S
SL-16 R/B 3.8 04:48:55 10° W 04:52:31 17° NW 04:56:08 10° N
Cosmos 2298 Rocket 4.3 04:48:08 10° NNW 04:53:10 44° WSW 04:58:09 10° S
deb Chang Zheng 4 4.1 04:49:35 10° N 04:53:34 38° WNW 04:57:31 10° SW
SJ-12 3.9 04:49:50 10° NNE 04:53:59 87° WNW 04:58:07 10° SSW
Cosmos 836 Rocket 4.5 04:51:29 10° SSW 04:56:40 81° WNW 05:01:55 10° NNE
